Location: Katowice
(50.2611°N, 19.0242°E)
Time: 00:14:10
(UTC+02:00)

Tiros 1 - Pass Details

Date: 27 August 2019
Orbit: 631 x 664 km, 48.4° (Epoch: 18 September)

Event Time Altitude Azimuth Distance (km) Brightness Sun altitude
Exits shadow 03:34:19 44° 232° (SW) 878 7.3 -19.3°
Maximum altitude 03:35:06 50° 199° (SSW) 818 7.3 -19.2°
Drops below altitude 10° 03:39:36 10° 125° (SE) 2,031 9.8 -18.7°
Sets 03:41:59 0° 120° (ESE) 2,944 10.7 -18.4°
